Voltar ao catálogo

DELTA 1 DEB

AtivoUNKNOWN
NORAD 40752·DEBRIS·🇺🇸 United States

Lançado Jul 29, 1976 de Vandenberg Space Force Base

Loading…

Próximas Passagens (próximas 24 horas)

TLE

AtualizadoSource: Space-Track

Época: Sep 14, 2026, 03:17 UTC

1 40752U 76077FV  26257.13744225 -.00000002  00000-0  58825-3 0  9999
2 40752 102.2204 315.4170 0564276 347.9515  33.9283 11.37645304532110

Acompanhe DELTA 1 DEB em tempo real com AllMySat

Download on the App Store